630  
ASUS44 KSHV 150410  
RWRSHV  
 
THE FOUR STATE AREA WEATHER ROUNDUP  
NATIONAL WEATHER SERVICE SHREVEPORT LA  
1100 PM CDT SUN AUG 14 2022  
 
NOTE: "FAIR" INDICATES FEW OR NO CLOUDS BELOW 12000 FEET  
WITH NO SIGNIFICANT WEATHER AND/OR S TO VISIBILITY
.  
 
!LAZ001-LAZ014-TXZ097-150500  
SHREVEPORT...MONROE...TEXARKANA RADIOS  
 
CITY SKY/WX TMP DP RH WIND PRES REMARKS
 
SHREVEPORT CLEAR 86 73 65 CALM 29.93S  
MONROE CLEAR 81 76 84 CALM 29.95S  
NATCHITOCHES CLEAR 78 76 95 CALM 29.95R  
TEXARKANA CLEAR 86 73 65 E6 29.94S  
ATLANTA FAIR 79 76 90 CALM 29.92S  

 
 
!LAZ001-LAZ014-TXZ097-150500  
OTHER LOCATIONS...  
 
CITY SKY/WX TMP DP RH WIND PRES REMARKS
 
DOWNTOWN SHV CLEAR 86 73 65 E3 29.93S  
BOSSIER CITY CLEAR 83 72 70 E5 29.92S  
RUSTON CLEAR 80 74 81 CALM 29.99R  
LITTLE ROCK PTCLDY 84 70 62 W3 29.93S  
EL DORADO CLEAR 78 76 93 CALM 29.95S  
JACKSON PTCLDY 77 73 87 CALM 29.96S  
NEW ORLEANS PTCLDY 82 76 81 S5 29.97R  
HOUSTON MOCLDY 82 75 79 S3 29.96R  
LUFKIN PTCLDY 83 73 72 S6 29.96R  
TYLER NOT AVBL  
DAL FT WORTH PTCLDY 90 67 46 SE7 29.91R  

 
 
!TXZ136-TXZ165-150500  
TYLER...LUFKIN RADIOS  
 
CITY SKY/WX TMP DP RH WIND PRES REMARKS
 
TYLER NOT AVBL  
GILMER CLEAR 86 66 51 SE3 29.94S  
LONGVIEW CLEAR 84 71 65 S6 29.93S  
LUFKIN PTCLDY 83 73 72 S6 29.96R  

 
 
!TXZ136-TXZ165-150500  
OTHER LOCATIONS...  
 
CITY SKY/WX TMP DP RH WIND PRES REMARKS
 
NACOGDOCHES PTCLDY 80 73 79 S3 29.96R  
BEAUMONT PTCLDY 78 76 93 S5 29.96R  
HOUSTON MOCLDY 82 75 79 S3 29.96R  
COLLEGE STN PTCLDY 83 68 60 S6 29.96R  
AUSTIN MOCLDY 81 66 60 S8 29.96R  
DAL FT WORTH PTCLDY 90 67 46 SE7 29.91R  
TEXARKANA CLEAR 86 73 65 E6 29.94S  
SHREVEPORT CLEAR 86 73 65 CALM 29.93S  
FORT POLK CLEAR 81 70 68 S3 29.96R  
LAKE CHARLES PTCLDY 77 74 90 S6 29.96R  

 
 
 
CLICK HERE TO GO TO PREVIOUS BULLETINS.

The Nexlab LA Page
The Nexlab TX Page
The Nexlab AR Page
The Nexlab OK Page Main Text Page